• en France
  • Liste des pays
  • À 7 jours
  • Température de l'eau
  • Carte satellitaire
  • Carte météo
  • Widgets météo
  • user-avatar
    Se connecter

    Météo par heure à Moksoh

    Ce jour, 17 Octobre, Mercredi

    Heure Température Précipitation Vent Pression Humidité
    00:00 +6°C° 0 mm 2 m/s 624 mmHg 76%
    01:00 +6°C° 0 mm 2 m/s 623 mmHg 75%
    02:00 +5°C° 0 mm 2 m/s 623 mmHg 74%
    03:00 +5°C° 0 mm 2 m/s 623 mmHg 73%
    04:00 +5°C° 0 mm 2 m/s 623 mmHg 71%
    05:00 +5°C° 0 mm 2 m/s 623 mmHg 70%
    06:00 +5°C° 0 mm 2 m/s 623 mmHg 68%
    07:00 +7°C° 0 mm 2 m/s 623 mmHg 60%
    08:00 +10°C° 0 mm 1 m/s 624 mmHg 53%
    09:00 +12°C° 0 mm 1 m/s 625 mmHg 45%
    10:00 +13°C° 0 mm 2 m/s 625 mmHg 44%
    11:00 +14°C° 0 mm 2 m/s 626 mmHg 42%
    12:00 +14°C° 0 mm 3 m/s 626 mmHg 41%
    13:00 +14°C° 0 mm 3 m/s 625 mmHg 44%
    14:00 +13°C° 0 mm 3 m/s 625 mmHg 48%
    15:00 +13°C° 0 mm 3 m/s 625 mmHg 51%
    16:00 +12°C° 0 mm 2 m/s 624 mmHg 62%
    17:00 +10°C° 0 mm 2 m/s 623 mmHg 72%
    18:00 +9°C° 0 mm 1 m/s 622 mmHg 82%
    19:00 +8°C° 0 mm 1 m/s 622 mmHg 81%
    20:00 +8°C° 0 mm 1 m/s 622 mmHg 80%
    21:00 +8°C° 0 mm 1 m/s 622 mmHg 78%
    22:00 +8°C° 0 mm 1 m/s 622 mmHg 75%
    23:00 +7°C° 0 mm 1 m/s 622 mmHg 72%

    Demain, 18 Octobre, Jeudi

    Heure Température Précipitation Vent Pression Humidité
    00:00 +7°C° 0 mm 1 m/s 621 mmHg 70%
    01:00 +7°C° 0 mm 1 m/s 621 mmHg 67%
    02:00 +7°C° 0 mm 1 m/s 621 mmHg 64%
    03:00 +6°C° 0 mm 1 m/s 621 mmHg 61%
    04:00 +6°C° 0 mm 1 m/s 621 mmHg 58%
    05:00 +6°C° 0 mm 1 m/s 620 mmHg 54%
    06:00 +6°C° 0 mm 1 m/s 620 mmHg 51%
    07:00 +8°C° 0 mm 1 m/s 621 mmHg 46%
    08:00 +10°C° 0 mm 1 m/s 622 mmHg 40%
    09:00 +12°C° 0 mm 1 m/s 623 mmHg 35%
    10:00 +13°C° 0 mm 1 m/s 624 mmHg 34%
    11:00 +14°C° 0 mm 2 m/s 624 mmHg 34%
    12:00 +15°C° 0 mm 2 m/s 624 mmHg 34%
    13:00 +15°C° 0 mm 2 m/s 624 mmHg 37%
    14:00 +14°C° 0 mm 2 m/s 623 mmHg 41%
    15:00 +14°C° 0 mm 2 m/s 623 mmHg 45%
    16:00 +12°C° 0 mm 2 m/s 623 mmHg 56%
    17:00 +10°C° 0 mm 1 m/s 622 mmHg 67%
    18:00 +8°C° 0 mm 1 m/s 621 mmHg 78%
    19:00 +8°C° 0 mm 1 m/s 621 mmHg 75%
    20:00 +8°C° 0 mm 1 m/s 621 mmHg 72%
    21:00 +8°C° 0 mm 1 m/s 621 mmHg 70%
    22:00 +6°C° 0 mm 2 m/s 621 mmHg 66%
    23:00 +6°C° 0 mm 2 m/s 621 mmHg 61%

    Après-demain, 19 Octobre, Vendredi

    Heure Température Précipitation Vent Pression Humidité
    00:00 +6°C° 0 mm 2 m/s 621 mmHg 57%
    01:00 +6°C° 0 mm 2 m/s 621 mmHg 55%
    02:00 +6°C° 0 mm 2 m/s 621 mmHg 53%
    03:00 +5°C° 0 mm 2 m/s 621 mmHg 51%
    04:00 +5°C° 0 mm 2 m/s 620 mmHg 50%
    05:00 +5°C° 0 mm 2 m/s 620 mmHg 48%
    06:00 +5°C° 0 mm 2 m/s 620 mmHg 47%
    07:00 +7°C° 0 mm 2 m/s 621 mmHg 42%
    08:00 +10°C° 0 mm 2 m/s 622 mmHg 36%
    09:00 +13°C° 0 mm 2 m/s 623 mmHg 31%
    10:00 +14°C° 0 mm 2 m/s 623 mmHg 30%
    11:00 +15°C° 0 mm 2 m/s 624 mmHg 28%
    12:00 +16°C° 0 mm 2 m/s 624 mmHg 26%
    13:00 +16°C° 0 mm 2 m/s 623 mmHg 30%
    14:00 +16°C° 0 mm 2 m/s 623 mmHg 34%
    15:00 +16°C° 0 mm 2 m/s 623 mmHg 38%
    16:00 +14°C° 0 mm 2 m/s 622 mmHg 47%
    17:00 +10°C° 0 mm 2 m/s 621 mmHg 57%
    18:00 +8°C° 0 mm 2 m/s 620 mmHg 66%
    19:00 +8°C° 0 mm 2 m/s 620 mmHg 65%
    20:00 +8°C° 0 mm 2 m/s 620 mmHg 63%
    21:00 +8°C° 0 mm 2 m/s 620 mmHg 62%
    22:00 +7°C° 0 mm 2 m/s 620 mmHg 61%
    23:00 +7°C° 0 mm 2 m/s 620 mmHg 61%

    20 Octobre, Samedi

    Heure Température Précipitation Vent Pression Humidité
    00:00 +7°C° 0 mm 2 m/s 619 mmHg 60%
    01:00 +7°C° 0 mm 2 m/s 619 mmHg 59%
    02:00 +7°C° 0 mm 2 m/s 619 mmHg 58%
    03:00 +6°C° 0 mm 2 m/s 619 mmHg 57%
    04:00 +6°C° 0 mm 2 m/s 619 mmHg 55%
    05:00 +6°C° 0 mm 2 m/s 619 mmHg 52%
    06:00 +6°C° 0 mm 2 m/s 618 mmHg 49%
    07:00 +9°C° 0 mm 2 m/s 619 mmHg 43%
    08:00 +12°C° 0 mm 2 m/s 620 mmHg 36%
    09:00 +15°C° 0 mm 1 m/s 621 mmHg 30%
    10:00 +16°C° 0 mm 1 m/s 621 mmHg 29%
    11:00 +17°C° 0 mm 2 m/s 622 mmHg 27%
    12:00 +18°C° 0 mm 2 m/s 622 mmHg 25%
    13:00 +18°C° 0 mm 2 m/s 622 mmHg 28%
    14:00 +17°C° 0 mm 2 m/s 621 mmHg 31%
    15:00 +17°C° 0 mm 2 m/s 621 mmHg 33%
    16:00 +15°C° 0 mm 1 m/s 620 mmHg 41%
    17:00 +13°C° 0 mm 1 m/s 620 mmHg 49%
    18:00 +11°C° 0 mm 1 m/s 619 mmHg 56%
    19:00 +11°C° 0 mm 1 m/s 619 mmHg 54%
    20:00 +10°C° 0 mm 1 m/s 619 mmHg 52%
    21:00 +10°C° 0 mm 1 m/s 619 mmHg 50%
    22:00 +10°C° 0 mm 1 m/s 619 mmHg 50%
    23:00 +10°C° 0 mm 1 m/s 619 mmHg 49%

    21 Octobre, Dimanche

    Heure Température Précipitation Vent Pression Humidité
    00:00 +9°C° 0 mm 1 m/s 618 mmHg 49%
    01:00 +9°C° 0 mm 1 m/s 618 mmHg 49%
    02:00 +9°C° 0 mm 1 m/s 618 mmHg 49%
    03:00 +9°C° 0 mm 1 m/s 618 mmHg 50%
    04:00 +9°C° 0 mm 1 m/s 618 mmHg 50%
    05:00 +8°C° 0 mm 1 m/s 618 mmHg 49%
    06:00 +8°C° 0 mm 1 m/s 618 mmHg 49%
    07:00 +10°C° 0 mm 1 m/s 618 mmHg 46%
    08:00 +12°C° 0 mm 1 m/s 619 mmHg 42%
    09:00 +14°C° 0 mm 1 m/s 620 mmHg 39%
    10:00 +15°C° 0 mm 1 m/s 620 mmHg 38%
    11:00 +16°C° 0 mm 1 m/s 620 mmHg 37%
    12:00 +17°C° 0 mm 2 m/s 620 mmHg 36%
    13:00 +16°C° 0 mm 2 m/s 620 mmHg 39%
    14:00 +16°C° 0 mm 2 m/s 619 mmHg 41%
    15:00 +16°C° 0 mm 2 m/s 619 mmHg 44%
    16:00 +14°C° 0 mm 1 m/s 618 mmHg 51%
    17:00 +12°C° 0 mm 1 m/s 618 mmHg 58%
    18:00 +10°C° 0 mm 0 m/s 618 mmHg 65%
    19:00 +10°C° 0 mm 0 m/s 617 mmHg 66%
    20:00 +10°C° 0 mm 1 m/s 617 mmHg 67%
    21:00 +10°C° 0 mm 1 m/s 617 mmHg 68%
    22:00 +9°C° 0 mm 1 m/s 617 mmHg 68%
    23:00 +9°C° 0 mm 1 m/s 617 mmHg 69%

    22 Octobre, Lundi

    Heure Température Précipitation Vent Pression Humidité
    00:00 +9°C° 0 mm 1 m/s 617 mmHg 70%
    01:00 +9°C° 0 mm 1 m/s 617 mmHg 70%
    02:00 +8°C° 0 mm 1 m/s 617 mmHg 70%
    03:00 +8°C° 0 mm 1 m/s 617 mmHg 70%
    04:00 +8°C° 0 mm 1 m/s 617 mmHg 71%
    05:00 +8°C° 0 mm 1 m/s 617 mmHg 72%
    06:00 +8°C° 0 mm 1 m/s 617 mmHg 72%
    07:00 +9°C° 0 mm 1 m/s 617 mmHg 67%
    08:00 +11°C° 0 mm 1 m/s 618 mmHg 61%
    09:00 +12°C° 0 mm 1 m/s 619 mmHg 56%
    10:00 +13°C° 0 mm 1 m/s 619 mmHg 53%
    11:00 +14°C° 0 mm 2 m/s 619 mmHg 51%
    12:00 +15°C° 0 mm 2 m/s 620 mmHg 48%
    13:00 +15°C° 0 mm 2 m/s 619 mmHg 51%
    14:00 +15°C° 0 mm 2 m/s 619 mmHg 53%
    15:00 +14°C° 0 mm 2 m/s 619 mmHg 56%
    16:00 +13°C° 0.1 mm 2 m/s 619 mmHg 64%
    17:00 +11°C° 0.1 mm 1 m/s 619 mmHg 72%
    18:00 +10°C° 0.1 mm 1 m/s 618 mmHg 80%
    19:00 +10°C° 0.1 mm 1 m/s 619 mmHg 81%
    20:00 +9°C° 0.1 mm 1 m/s 619 mmHg 82%
    21:00 +9°C° 0.1 mm 1 m/s 619 mmHg 83%
    22:00 +9°C° 0 mm 1 m/s 619 mmHg 81%
    23:00 +9°C° 0 mm 1 m/s 619 mmHg 80%
    Voir plus